INTELSAT 701 (IS-701) (22871 NORAD) Tracking and Keplerian Element Data

This shows tracking and keplerian element data for the satellite.

Feedback or suggestion? Click here.




ElementValue
Catalog22871
NameINTELSAT 701 (IS-701)
Epoch Orbit9201
Epoch Day4.14553951
Epoch Year2019
RAAN64.3734
Inclination5.2722
Eccentricity0.0003008
Argument of Perigee254.108
Mean Anonmoly285.8615
Mean Motion0.99318017
Decay Rate-4E-07
L11 22871U 93066A 19004.14553951 -.00000040 00000-0 00000+0 0 9995
L22 22871 5.2722 64.3734 0003008 254.1080 285.8615 0.99318017 92013



Live tracking and technical data element details for INTELSAT 701 (IS-701) (NORAD 22871). INTELSAT 701 (IS-701) can be tracked NOW for your location showing map with azimuth and elevation plus other details from your city location.







IsCatalogInMostPopularTable: catalog: 22871, numindb: 518
Update: records affected: 1



GetName: 22871 INTELSAT 701 (IS-701)

Hit Count: updated at: Sun, 08 Feb 2026 16:38:01 GMT